This is the latest recevied weather packets stored in our database for station/object KF0FSA. If no packets are shown the sender has not sent any weather packets the latest 10 day(s).
| Time | Temp. | Humidity | Pressure | Rain* | Wind** | Luminosity | Snow |
|---|---|---|---|---|---|---|---|
| 1778032592 | 7.22° C | 44% | 960.6 hPa | 0 mm | - | 0 W/m² | - |
| 1778032165 | 7.22° C | 44% | 960.7 hPa | 0 mm | - | 0 W/m² | - |
| 1778031862 | 7.22° C | 44% | 960.6 hPa | 0 mm | - | 0 W/m² | - |
| 1778031558 | 7.22° C | 43% | 960.4 hPa | 0 mm | - | 2 W/m² | - |
| 1778031259 | 7.78° C | 43% | 960.5 hPa | 0 mm | - | 4 W/m² | - |
| 1778030959 | 7.78° C | 41% | 960.4 hPa | 0 mm | - | 7 W/m² | - |
| 1778030783 | 7.78° C | 41% | 960.2 hPa | 0 mm | - | 11 W/m² | - |
| 1778030359 | 7.78° C | 40% | 960.2 hPa | 0 mm | - | 13 W/m² | - |
| 1778030058 | 8.33° C | 40% | 960.2 hPa | 0 mm | - | 16 W/m² | - |
| 1778029759 | 8.33° C | 39% | 960.2 hPa | 0 mm | - | 20 W/m² | - |
| 1778029460 | 8.33° C | 40% | 960.1 hPa | 0 mm | - | 28 W/m² | - |
| 1778029159 | 8.33° C | 39% | 960.1 hPa | 0 mm | - | 36 W/m² | - |
| 1778028859 | 8.89° C | 39% | 960 hPa | 0 mm | - | 49 W/m² | - |
| 1778028560 | 8.89° C | 38% | 959.9 hPa | 0 mm | - | 53 W/m² | - |
| 1778028383 | 8.89° C | 37% | 959.8 hPa | 0 mm | - | 57 W/m² | - |
| 1778027959 | 8.89° C | 37% | 959.7 hPa | 0 mm | - | 75 W/m² | - |
| 1778027656 | 8.89° C | 38% | 959.7 hPa | 0 mm | - | 87 W/m² | - |
| 1778027357 | 9.44° C | 38% | 959.7 hPa | 0 mm | - | 88 W/m² | - |
| 1778027176 | 9.44° C | 38% | 959.6 hPa | 0 mm | - | 99 W/m² | - |
| 1778026752 | 9.44° C | 38% | 959.5 hPa | 0 mm | - | 124 W/m² | - |
| 1778026587 | 9.44° C | 37% | 959.5 hPa | 0 mm | - | 59 W/m² | - |
| 1778026151 | 9.44° C | 36% | 959.4 hPa | 0 mm | - | 144 W/m² | - |
| 1778025852 | 9.44° C | 36% | 959.3 hPa | 0 mm | - | 138 W/m² | - |
| 1778025553 | 9.44° C | 36% | 959.3 hPa | 0 mm | - | 178 W/m² | - |
| 1778025252 | 9.44° C | 38% | 959.4 hPa | 0 mm | - | 190 W/m² | - |
* Rain latest hour (hover to see other rain measurements)
** Current wind speed in m/s (hover to see current wind gust speed)